Starlink 36546

operational
NORAD ID: 67459 Int'l Des: 2026-008 Owner: SPXS Country: US Constellation: starlink
LEOCIRCULAR

About Starlink 36546

Description loading...

Live Position

Loading 3D Globe...

Upcoming Passes

Altitude History

Altitude vs Time

uPlot chart will show altitude changes over time

Two-Line Element Set

1 67459U 26008Q 26065.45833908 .00037054 00000-0 13486-2 0 9999
2 67459 42.9971 223.8462 0000808 197.2378 162.8446 15.27595919 9075
Epoch: Mar 6, 2026 • Age: 39 hours

Current Status

Altitude 482.3 km
Velocity 7.63 km/s
Sub-Earth Point 12.52°N, 164.37°W
Launch Date Jan 14, 2026
Age 0.1 years
Type internet

Technical Details

Classification Payload
Mass 575.00 kg
Dry Mass 530.00 kg
Total Mass 575.00 kg
Length 0.30 m
Diameter 4.10 m
Span 29.00 m
Shape Box + pan
Manufacturer SPXS
Bus Type Starlink V2MO
Phase Status In Orbit
Owner/State SPXS/US

Large Constellations

Loading constellations...